Погода в Илоило

Филиппины     10°45′15″N   122°32′04″E
темп.,
°C
ветер,
м/с
пор.,
м/с
влажн.,
%
обл.,
%
осадки,
мм/ч
давл.,
гПа
погр.,
м
11 мая, вт
вт1123:00+27ссв368291 0.0 1010221
02:00+26ссв358157 0.0 1008185
05:00+26с377999 0.0 1008264
08:00+29ссв576962 0.0 1009784
11:00+33св565314 0.0 10081311
14:00+34всв554944 0.0 10061521
17:00+31всв566056 0.3 1006851
20:00+28ссв3774100 2.3 1009255
12 мая, ср
ср1223:00+27ссв377867 0.1 1009274
02:00+27с3779100 0.1 1008278
05:00+26ссв4882100 0.0 1008349
08:00+29св577148 0.0 1010994
11:00+33всв665311 0.1 10081394
14:00+34всв554924 0.1 10061596
17:00+31св675930 0.0 1006797
20:00+28ссв387170 0.1 1008330
13 мая, чт
чт1323:00+27ссв49755 0.0 1009410
02:00+26ссв48795 0.0 1007364
05:00+26ссв48826 0.0 1008361
08:00+29св686861 0.0 10091113
11:00+33всв6850100 0.0 10081459
14:00+34всв6644100 0.0 10051532
17:00+32св675281 0.0 10051011
20:00+28ссв48675 0.0 1007298
14 мая, пт
пт1423:00+27ссв49735 0.0 1008363
02:00+27ссв59785 0.0 1006387
05:00+26ссв510845 0.0 1007463
08:00+29ссв686984 0.0 1008986
11:00+34св685021 0.0 10061513
14:00+33ссв675247 0.0 10041459
17:00+31ссв68615 0.3 1005975
20:00+28с597485 0.4 1007511
15 мая, сб
сб1523:00+27ссв587835 0.0 1008499
02:00+26ссв488244 0.4 1006402
05:00+26ссв488710 0.0 1007345
08:00+29ссв566865 0.0 1008958
11:00+31ссв556365 1.6 10071086
14:00+31св666799 7.5 10051039
17:00+27св5785100 7.8 1006422
20:00+27св61179100 0.7 1008847